Wind_Speed
3 3 4 5 5 5 5 5 5 5 5 5 5 5 5 5 6 6 6 6 7 7 7 7 8 8 8 8 9 9 9 9 9 8 9 9 10 10 10 10 10 11 11
5 5 5 6 6 6 6 6 5 5 5 5 6 6 6 7 7 7 7 7 7 7 7 7 7 7 8 8 8 9 9 9 9 9 9 10 10 10 11 11 11 12 12
7 7 7 7 7 8 7 7 6 6 6 6 6 7 7 7 8 8 9 8 8 8 8 8 8 7 8 9 8 8 9 10 10 10 10 11 11 11 12 12 12 12 13
7 7 7 7 8 8 8 7 7 7 7 7 7 7 7 7 7 8 9 9 8 8 8 8 7 7 7 8 8 9 10 10 11 11 11 12 12 12 12 12 12 13 13
8 8 8 8 9 9 9 9 9 8 8 8 8 8 8 8 8 8 8 9 9 8 7 8 8 8 9 9 10 10 10 10 11 11 11 12 12 11 11 12 12 13 13
9 9 9 9 9 9 10 10 10 9 9 8 9 9 9 9 9 9 8 9 9 9 9 9 9 9 9 10 10 11 11 11 11 11 11 11 11 11 11 11 12 13 13
9 9 10 10 10 11 11 11 11 10 9 10 10 10 10 10 9 9 10 10 10 10 10 10 10 10 10 10 10 10 11 11 12 12 12 11 11 11 11 11 12 13 14
10 10 11 11 11 11 11 12 12 11 11 11 11 11 11 10 10 9 10 10 10 10 11 11 11 10 10 11 11 11 11 11 12 12 13 12 12 12 12 12 13 12 13
11 12 11 11 11 11 11 11 12 12 12 12 12 12 12 11 10 9 10 10 11 11 11 12 12 12 11 11 11 12 12 12 12 12 12 13 12 12 13 13 14 14 14
11 12 11 10 10 10 11 11 11 11 12 12 12 13 13 12 11 11 11 11 12 12 12 13 13 13 13 12 12 12 12 12 12 13 13 13 13 13 13 13 14 14 15
10 10 10 10 10 10 11 11 11 11 11 11 12 12 14 13 13 13 12 12 13 13 13 13 13 13 13 13 13 13 13 13 13 13 13 13 14 14 14 15 15 15 15
9 9 9 10 10 10 10 10 11 11 10 10 11 12 13 13 13 12 13 13 13 13 13 14 14 14 14 14 14 14 14 14 14 14 14 14 14 15 15 16 16 16 16
11 11 10 10 10 11 11 11 11 11 11 11 12 13 13 13 13 14 14 14 14 14 14 15 15 14 15 15 15 15 15 15 15 15 15 15 15 16 16 16 16 17 17
12 12 12 12 12 12 13 12 12 12 13 13 13 14 14 14 14 14 14 15 15 15 15 15 15 15 15 16 16 16 16 16 16 16 16 16 16 16 16 16 17 17 17
13 13 14 13 13 13 12 13 14 14 14 14 15 15 15 15 16 16 16 16 16 15 15 16 17 17 17 17 17 17 17 17 17 17 17 17 17 17 17 18 18 18 18
15 15 15 14 14 14 14 14 15 16 16 16 16 16 16 16 16 16 17 17 17 17 16 17 18 19 19 19 19 20 20 19 19 18 18 18 19 19 19 18 19 19 19
16 16 17 16 15 15 16 16 17 17 17 16 17 17 17 17 17 18 18 18 19 19 19 19 20 20 20 20 20 21 20 20 20 20 20 20 20 20 20 20 20 21 21
17 17 18 18 17 17 17 17 18 18 18 18 17 17 17 18 18 19 19 19 20 21 21 21 20 21 20 21 21 21 20 21 21 21 21 22 22 22 22 22 22 22 22
17 18 18 19 19 19 19 19 19 19 19 18 18 18 18 18 19 20 20 21 21 21 21 21 20 21 20 21 22 22 22 23 23 22 22 23 23 23 23 23 24 24 24
19 19 19 20 20 21 20 20 20 20 21 20 19 19 19 19 20 21 21 21 22 22 22 22 21 21 21 23 23 23 24 24 24 24 24 24 24 24 24 25 25 25 25
20 20 21 21 22 22 22 22 22 21 21 21 21 20 20 20 20 21 22 22 22 23 22 22 21 21 22 22 23 23 24 25 25 25 25 26 26 26 26 26 26 26 26
20 20 21 22 23 23 23 23 22 22 22 22 22 22 22 22 22 22 22 22 22 22 22 22 22 22 22 22 23 23 24 25 26 26 27 28 28 28 28 28 27 27 27
21 21 21 22 22 22 22 23 23 22 22 23 23 23 23 23 23 23 23 23 23 23 23 23 23 24 24 24 24 24 25 26 26 27 27 28 28 29 29 29 28 28 28
22 22 23 23 23 23 23 23 23 23 23 23 23 23 24 24 24 24 24 24 24 25 25 25 25 25 25 25 25 25 26 27 27 28 28 29 28 29 29 29 29 29 29
23 23 23 23 23 24 23 23 23 24 24 24 24 25 25 25 24 24 25 25 25 25 25 26 26 26 26 27 26 26 26 27 27 28 28 29 29 29 29 29 29 29 29
25 25 25 24 23 23 24 24 24 24 25 25 25 25 25 25 25 25 25 26 26 26 26 27 28 28 28 27 27 27 27 27 28 28 28 28 29 29 29 29 29 29 29
Wind_Direction
272 263 243 238 236 237 241 250 256 251 244 235 243 253 252 255 251 251 256 253 256 258 257 257 252 249 242 242 242 243 241 241 244 253 259 262 260 262 265 269 269 272 268
263 265 259 246 242 243 248 249 254 252 245 247 253 255 256 255 251 251 255 254 255 255 256 255 251 246 244 242 244 244 245 246 248 253 259 261 261 268 270 270 272 272 271
263 264 260 250 246 243 245 248 252 256 253 257 260 262 259 256 255 255 255 255 253 253 253 254 253 252 248 248 248 249 252 253 251 255 259 264 268 270 272 270 271 271 269
267 263 261 256 252 249 247 251 255 258 259 257 261 261 257 259 258 259 258 256 257 258 256 256 257 259 258 256 256 257 257 257 258 260 260 263 266 267 271 268 267 268 268
273 265 260 259 253 251 250 253 255 257 257 259 259 258 258 259 258 259 259 260 260 260 264 263 263 267 265 264 262 258 261 263 264 264 263 264 266 266 268 269 270 269 268
268 262 258 258 256 252 251 253 255 255 258 260 257 255 254 252 253 258 260 260 258 260 265 267 269 270 269 267 264 259 261 263 265 265 267 268 266 265 267 272 272 270 271
261 259 258 257 255 255 255 256 255 255 258 260 259 258 257 255 257 261 261 260 259 260 264 266 269 272 269 267 268 269 265 265 266 268 269 269 270 269 272 275 279 274 273
260 255 258 255 253 254 254 255 255 255 255 257 260 261 262 263 263 257 255 255 256 258 261 264 266 268 268 268 268 267 270 270 270 271 268 268 270 271 273 276 280 279 276
264 258 255 253 256 257 256 255 256 256 256 257 260 262 263 262 258 259 255 254 258 258 261 263 264 266 269 271 273 270 272 271 272 273 272 269 270 270 271 274 276 279 279
266 260 256 254 257 255 255 256 255 257 257 257 262 264 264 264 262 259 260 260 259 258 259 260 263 267 268 271 275 274 275 275 275 274 273 271 272 274 273 274 276 279 279
276 271 265 261 260 258 258 257 256 256 259 262 265 267 264 264 264 265 264 262 260 260 260 259 263 266 267 269 273 276 277 276 275 275 274 273 273 273 273 275 278 279 280
279 279 276 265 264 264 264 259 259 261 265 269 269 268 266 267 264 266 265 264 266 264 263 261 262 267 268 267 271 274 276 276 275 275 276 275 273 273 276 276 277 278 279
274 275 277 270 267 265 267 265 261 264 268 270 271 271 270 270 270 269 265 266 270 269 266 265 262 265 268 268 272 275 275 274 274 275 276 276 276 275 276 278 277 277 278
273 273 271 270 267 267 267 267 266 269 271 274 274 275 275 274 273 271 269 269 271 269 268 267 266 268 270 272 275 277 274 273 274 275 276 277 279 279 277 278 278 278 278
271 271 271 270 270 268 266 267 269 270 270 273 275 276 276 275 274 274 274 273 271 268 267 269 270 270 271 272 275 278 277 275 276 276 276 276 278 278 278 278 277 278 278
271 270 270 271 271 268 267 269 272 275 275 275 275 277 277 276 276 275 275 273 271 269 267 268 271 270 270 270 272 274 275 275 276 278 279 279 278 278 277 277 276 278 278
270 269 270 270 270 269 269 270 273 275 275 275 277 277 277 277 275 275 274 272 272 271 271 270 270 271 271 270 272 273 276 275 275 276 278 279 279 278 277 276 275 276 277
270 268 269 270 269 269 269 271 272 273 274 275 277 278 277 275 275 275 274 272 272 271 271 272 270 271 271 271 272 274 276 276 276 275 276 277 276 275 276 276 275 275 276
271 268 269 270 270 270 270 271 272 273 274 274 275 276 276 276 276 276 276 274 272 272 273 272 271 270 271 271 272 273 275 276 278 276 275 275 274 273 274 275 274 274 275
272 269 269 270 271 271 271 270 271 272 273 275 275 275 274 276 277 276 276 274 272 272 273 273 271 271 271 271 273 275 276 276 277 277 276 275 275 274 274 275 274 273 273
274 271 269 269 271 272 271 270 271 272 273 274 274 276 276 277 278 277 275 273 271 272 273 273 272 271 272 274 275 278 278 276 276 275 275 275 274 273 273 273 273 272 273
275 273 271 270 269 270 270 270 270 271 271 271 272 274 276 277 278 277 276 275 272 272 273 273 273 274 274 275 277 278 279 279 278 277 276 274 273 273 273 273 273 273 272
274 273 274 271 269 268 269 268 269 270 271 273 273 273 275 276 277 277 277 276 274 272 271 271 273 275 275 275 276 277 278 279 279 279 278 277 275 275 274 273 273 273 273
273 273 276 275 270 269 268 267 268 271 274 275 275 274 274 274 275 276 276 275 275 274 271 271 273 274 275 275 276 278 278 278 279 279 279 278 277 277 276 275 273 273 272
272 272 275 279 274 270 268 268 270 272 274 275 276 275 274 275 275 274 274 275 275 274 273 273 274 274 274 275 276 277 278 280 281 282 281 280 279 276 276 276 274 273 271
272 272 273 275 274 270 267 269 271 274 274 276 277 276 275 275 274 274 274 274 274 274 272 272 274 274 274 274 274 275 278 281 282 283 283 281 279 276 275 275 275 272 271
Height
5876 5875 5875 5875 5875 5875 5874 5874 5875 5875 5875 5875 5875 5875 5875 5875 5875 5875 5875 5875 5875 5875 5875 5875 5874 5874 5874 5874 5875 5875 5875 5876 5876 5877 5877 5877 5877 5877 5877 5877 5877 5877 5877
5874 5874 5874 5874 5873 5873 5873 5873 5874 5874 5874 5874 5874 5874 5874 5874 5874 5874 5874 5874 5874 5873 5873 5873 5872 5872 5872 5873 5873 5873 5873 5874 5874 5874 5875 5875 5874 5875 5875 5875 5875 5875 5875
5873 5873 5872 5872 5872 5872 5872 5872 5872 5872 5873 5873 5872 5872 5872 5872 5872 5872 5872 5872 5872 5872 5871 5871 5871 5870 5870 5870 5871 5871 5871 5871 5872 5872 5872 5872 5872 5872 5872 5872 5872 5872 5872
5871 5871 5870 5870 5870 5870 5870 5871 5871 5871 5871 5871 5871 5870 5870 5870 5870 5870 5870 5870 5870 5870 5869 5869 5869 5869 5869 5869 5869 5869 5869 5869 5870 5870 5870 5870 5870 5869 5869 5869 5869 5869 5869
5869 5869 5869 5868 5868 5868 5869 5869 5869 5869 5869 5869 5869 5869 5869 5869 5869 5868 5868 5868 5868 5868 5868 5867 5867 5867 5867 5867 5867 5867 5867 5867 5867 5867 5867 5867 5867 5867 5867 5867 5867 5867 5867
5867 5866 5866 5866 5866 5866 5867 5867 5867 5867 5867 5867 5867 5867 5867 5866 5867 5867 5866 5866 5866 5866 5866 5866 5866 5865 5865 5865 5864 5864 5865 5865 5865 5864 5864 5864 5864 5864 5864 5864 5864 5864 5864
5864 5864 5864 5864 5864 5864 5864 5864 5865 5865 5865 5865 5865 5865 5864 5864 5864 5864 5864 5864 5864 5864 5863 5863 5863 5863 5863 5862 5862 5862 5862 5862 5862 5862 5862 5862 5862 5862 5862 5861 5861 5861 5861
5861 5861 5862 5862 5862 5862 5862 5862 5862 5862 5862 5862 5862 5862 5862 5863 5862 5861 5861 5861 5861 5861 5861 5861 5861 5860 5860 5860 5860 5860 5859 5859 5859 5859 5859 5859 5859 5859 5859 5859 5858 5858 5857
5859 5859 5859 5859 5859 5859 5859 5859 5860 5860 5860 5860 5860 5860 5860 5860 5859 5859 5859 5859 5859 5858 5858 5858 5858 5858 5858 5858 5857 5857 5857 5857 5857 5857 5856 5856 5856 5856 5856 5856 5855 5855 5854
5856 5856 5856 5856 5856 5856 5856 5857 5857 5857 5857 5857 5857 5857 5857 5856 5857 5857 5857 5856 5856 5856 5856 5855 5855 5855 5855 5855 5854 5854 5854 5854 5854 5854 5853 5853 5853 5853 5853 5852 5852 5852 5851
5853 5853 5853 5854 5854 5854 5854 5854 5854 5854 5854 5854 5854 5854 5854 5854 5854 5854 5854 5854 5853 5853 5853 5852 5852 5852 5852 5852 5851 5851 5851 5851 5851 5850 5850 5850 5850 5850 5849 5849 5849 5848 5848
5851 5851 5851 5851 5851 5851 5851 5851 5851 5851 5852 5851 5851 5851 5851 5851 5850 5850 5850 5850 5850 5850 5849 5849 5849 5849 5848 5848 5848 5848 5848 5847 5847 5847 5847 5847 5847 5846 5846 5845 5845 5844 5844
5849 5849 5849 5849 5849 5849 5849 5849 5849 5849 5849 5849 5849 5848 5848 5847 5847 5847 5847 5846 5846 5846 5845 5845 5845 5845 5845 5845 5845 5845 5844 5844 5844 5843 5843 5843 5843 5842 5842 5842 5841 5840 5840
5846 5846 5846 5846 5846 5846 5846 5846 5846 5846 5846 5846 5845 5845 5844 5844 5844 5843 5843 5843 5842 5842 5842 5842 5841 5841 5841 5841 5841 5841 5840 5840 5840 5840 5839 5839 5839 5838 5838 5837 5837 5836 5835
5843 5843 5843 5843 5843 5843 5843 5843 5843 5843 5842 5842 5842 5841 5841 5841 5840 5839 5839 5839 5839 5838 5838 5838 5837 5837 5836 5836 5836 5836 5836 5836 5835 5835 5835 5835 5834 5834 5833 5833 5832 5832 5831
5840 5840 5840 5839 5840 5839 5839 5839 5839 5839 5838 5838 5838 5837 5837 5837 5836 5835 5835 5834 5834 5834 5834 5833 5833 5832 5832 5832 5831 5831 5831 5831 5831 5830 5830 5830 5829 5829 5829 5828 5828 5827 5826
5835 5835 5835 5835 5835 5835 5835 5835 5835 5835 5834 5834 5833 5833 5832 5832 5832 5831 5831 5830 5829 5829 5829 5829 5828 5827 5827 5826 5826 5826 5826 5825 5825 5825 5825 5824 5824 5824 5823 5823 5822 5822 5821
5831 5831 5831 5831 5831 5830 5830 5830 5830 5830 5829 5829 5828 5828 5827 5827 5827 5826 5825 5825 5824 5823 5823 5823 5822 5821 5821 5821 5821 5820 5820 5820 5819 5819 5819 5818 5818 5818 5817 5817 5816 5816 5815
5826 5826 5826 5826 5825 5825 5825 5825 5825 5824 5824 5824 5823 5823 5822 5822 5821 5820 5820 5819 5818 5817 5817 5817 5816 5816 5815 5815 5814 5814 5814 5814 5813 5813 5812 5812 5812 5811 5811 5810 5810 5809 5809
5821 5820 5820 5820 5820 5820 5819 5819 5819 5819 5819 5818 5818 5817 5816 5816 5815 5814 5813 5813 5812 5811 5811 5810 5810 5810 5809 5808 5808 5808 5808 5807 5807 5806 5805 5805 5805 5804 5804 5803 5803 5802 5801
5815 5815 5815 5814 5814 5814 5814 5813 5813 5812 5812 5812 5812 5811 5810 5810 5809 5808 5807 5806 5805 5805 5804 5804 5804 5803 5803 5802 5802 5801 5801 5800 5800 5799 5798 5798 5798 5797 5796 5796 5795 5795 5794
5810 5809 5809 5809 5808 5808 5807 5807 5806 5806 5806 5806 5805 5804 5804 5803 5802 5801 5800 5800 5799 5799 5798 5798 5798 5797 5797 5796 5796 5795 5794 5794 5793 5793 5791 5790 5790 5789 5788 5788 5787 5787 5786
5804 5804 5803 5802 5802 5801 5801 5801 5800 5800 5799 5799 5798 5797 5797 5796 5795 5794 5794 5793 5792 5792 5792 5792 5791 5791 5790 5790 5789 5788 5787 5786 5785 5784 5783 5782 5781 5781 5780 5779 5779 5778 5778
5798 5798 5797 5796 5795 5794 5794 5794 5794 5793 5793 5792 5791 5791 5790 5789 5788 5787 5787 5786 5785 5785 5784 5784 5784 5784 5783 5782 5781 5781 5780 5779 5778 5777 5775 5774 5773 5772 5771 5770 5770 5769 5769
5791 5791 5790 5789 5788 5788 5787 5787 5787 5786 5786 5785 5784 5783 5782 5782 5781 5780 5779 5779 5778 5777 5777 5777 5776 5776 5775 5774 5773 5773 5772 5770 5769 5768 5767 5765 5764 5763 5762 5762 5761 5760 5760
5784 5784 5783 5782 5781 5780 5780 5780 5780 5779 5779 5778 5777 5776 5775 5774 5774 5773 5772 5771 5771 5770 5769 5769 5768 5768 5767 5766 5765 5764 5763 5762 5761 5760 5758 5756 5755 5754 5753 5753 5752 5751 5751